Wind_Speed
14 17 18 18 16 15 14 13 14 14 13 9 10 9 7 7 9 11 11 12 13 13 14 14 15 14 14 13 14 15 15 14 13 12 12 11 13 15
14 17 19 19 20 18 16 16 16 13 13 14 9 10 9 9 9 12 13 12 12 13 14 17 18 18 19 18 18 19 19 19 18 17 16 15 14 13
16 17 16 17 18 22 20 19 18 16 16 15 15 13 12 13 12 14 14 16 17 17 18 20 21 22 24 22 21 21 19 20 21 20 21 21 19 17
21 19 19 18 18 18 21 23 20 19 18 17 16 16 17 16 16 17 19 21 23 21 21 24 23 21 21 23 25 28 29 27 25 24 24 22 23 23
22 23 20 20 19 18 19 22 22 21 22 22 20 21 20 17 17 17 18 22 25 25 23 24 26 25 24 23 25 25 26 25 23 22 23 24 26 27
27 25 24 23 21 20 19 19 21 22 21 23 23 22 19 20 20 23 25 26 25 21 21 24 22 21 23 22 23 24 25 27 28 28 28 27 27 28
33 28 25 25 24 23 22 21 20 21 23 23 22 23 24 25 24 26 27 28 25 23 22 19 21 21 17 17 17 14 15 18 20 23 24 25 26 27
35 30 27 25 26 25 23 22 22 20 21 24 23 24 23 24 27 27 27 30 26 24 21 22 21 16 18 20 20 20 20 20 23 22 20 21 24 24
31 28 27 25 26 26 23 21 22 24 23 21 25 23 24 23 24 27 28 23 24 23 25 25 22 23 20 21 21 23 24 24 23 21 22 25 27 29
24 24 23 23 25 25 24 23 23 23 25 22 23 24 29 23 25 26 24 24 24 23 24 30 24 25 21 22 24 24 23 20 23 22 21 24 26 27
25 19 18 20 20 22 23 24 23 21 19 18 21 22 21 24 22 21 23 24 27 24 20 23 19 25 27 29 26 22 22 20 20 22 23 25 26 28
19 19 20 19 19 21 23 22 23 19 17 17 20 20 20 17 21 23 21 19 16 15 17 20 23 24 25 28 25 26 22 22 22 22 24 24 24 28
16 15 16 18 21 24 24 18 16 13 15 16 17 14 11 16 17 12 9 12 16 19 20 20 23 24 24 26 28 26 23 22 23 23 24 28 28 28
16 16 17 18 18 16 12 12 15 15 15 15 10 8 11 14 9 10 12 15 19 22 22 22 24 20 22 26 28 29 22 25 26 27 30 35 34 32
17 18 17 15 12 11 10 11 14 15 15 12 8 11 12 12 12 13 15 19 22 23 18 16 18 19 22 25 28 28 30 29 26 29 34 40 38 36
20 18 15 12 11 10 10 12 12 13 13 12 12 12 13 13 15 16 19 21 23 18 14 13 16 20 23 24 25 29 30 29 28 32 39 42 41 40
18 18 16 14 13 11 12 12 12 12 12 14 16 15 14 17 18 16 18 19 17 18 18 16 16 19 19 21 28 30 26 25 30 36 41 44 44 46
19 17 15 14 11 12 12 12 12 12 11 13 15 17 18 18 15 16 18 14 15 17 18 19 19 17 22 26 25 23 23 28 35 38 39 46 52 51
17 15 15 14 15 12 12 10 8 7 9 12 14 16 16 15 18 18 10 14 16 16 18 18 16 20 27 30 25 20 25 31 37 39 41 46 52 53
16 15 16 16 13 9 10 8 5 5 8 10 11 13 16 17 12 11 13 15 14 16 16 14 15 20 25 25 24 26 26 33 34 39 43 47 48 50
17 16 15 13 10 9 9 8 6 8 10 11 12 14 13 11 11 13 13 13 15 16 16 17 17 20 23 22 23 27 32 30 30 34 42 44 44 50
16 14 13 10 10 11 10 8 6 8 8 7 8 9 11 10 11 14 15 15 15 14 17 17 17 19 22 23 23 27 35 36 29 28 36 36 36 40
12 10 9 11 11 11 10 6 5 8 9 9 9 10 10 10 11 15 15 15 15 15 16 15 17 17 21 23 23 28 33 31 33 37 37 41 38 37
Wind_Direction
236 236 239 240 242 244 242 247 258 263 271 270 267 266 278 282 278 270 281 290 303 309 308 306 310 308 310 306 306 304 303 302 300 299 301 296 289 287
241 239 240 239 241 245 250 253 257 251 265 281 254 265 279 304 300 295 293 298 303 307 308 303 297 294 298 289 292 293 289 289 285 284 287 292 296 295
243 241 243 242 242 241 249 253 253 256 262 267 273 265 272 292 294 294 292 293 294 293 293 303 300 293 293 284 278 285 289 288 281 276 271 271 274 280
247 247 243 242 243 244 246 250 255 261 268 270 268 269 278 289 304 303 290 296 301 296 294 299 297 293 289 286 283 284 284 282 276 272 273 275 271 268
256 251 254 246 251 244 252 254 255 264 265 267 271 278 281 287 290 300 302 300 298 297 292 290 295 294 290 284 280 281 282 282 276 272 267 266 269 271
260 254 252 250 254 259 254 255 259 261 265 263 271 278 285 294 305 305 299 305 299 295 295 300 299 295 296 294 288 281 274 276 278 274 270 266 266 266
261 258 257 255 254 260 264 266 267 267 264 261 266 274 279 282 297 306 298 307 296 296 297 297 299 305 303 305 298 292 293 287 282 280 276 273 270 269
262 261 260 263 256 257 263 264 264 269 271 268 272 276 280 295 293 295 295 300 296 301 303 302 303 301 303 305 306 295 291 298 298 291 283 278 272 268
268 267 263 262 256 256 260 263 264 262 260 263 269 274 291 289 294 293 293 290 290 296 296 295 297 298 301 302 299 298 298 301 302 299 289 277 272 269
266 269 263 256 252 256 261 263 269 267 259 265 263 275 284 282 291 292 289 289 290 292 293 293 301 301 301 305 305 305 303 302 303 298 293 291 282 278
261 267 253 251 246 253 257 266 271 268 262 262 272 286 286 291 289 285 287 291 294 297 292 299 310 310 310 310 312 312 312 308 300 304 301 295 285 283
257 260 249 241 244 252 255 266 270 263 267 261 277 280 289 290 291 289 291 290 294 306 311 308 309 313 314 315 314 315 312 309 308 306 311 308 299 290
253 239 231 242 251 255 263 256 259 261 266 270 277 279 296 309 302 293 277 295 305 309 315 307 307 310 307 305 311 314 310 309 311 315 315 311 301 292
221 221 239 247 252 250 236 251 257 257 263 273 262 273 308 329 312 297 302 310 314 314 312 304 302 307 309 309 313 319 317 313 309 314 315 318 311 301
211 226 233 235 223 226 226 249 239 245 259 253 261 289 301 307 308 303 303 307 309 308 305 300 300 305 310 311 312 318 317 315 313 313 315 316 315 312
217 225 224 214 207 211 234 244 242 248 243 241 253 266 276 288 298 298 301 307 312 310 309 301 306 313 316 314 310 311 316 314 316 318 319 317 317 316
215 214 207 212 212 229 230 227 223 229 241 252 267 274 279 285 293 291 296 306 302 312 314 314 307 313 309 312 316 315 312 314 322 322 321 318 319 321
202 208 207 207 209 198 199 213 237 247 257 260 269 271 280 286 288 293 299 295 305 310 312 317 326 318 314 315 324 319 318 324 325 324 325 324 323 324
192 195 196 194 188 202 217 229 230 253 265 265 270 279 285 290 295 298 289 301 306 308 312 321 327 330 331 328 328 331 326 327 324 325 329 330 325 325
176 180 189 191 198 223 230 231 243 265 272 279 280 280 283 291 290 292 298 306 307 310 314 327 324 323 329 321 319 330 331 328 327 329 332 332 331 328
176 183 199 206 207 204 213 240 256 287 292 284 277 275 271 276 289 301 301 299 303 311 318 319 323 327 330 326 321 322 328 334 330 332 341 342 333 325
185 194 209 217 207 208 224 239 277 297 287 282 278 264 261 269 290 304 301 293 303 311 318 323 326 332 336 333 320 324 329 334 338 338 350 351 340 322
195 199 220 227 225 219 241 255 320 324 306 303 298 286 263 271 289 307 300 296 301 308 316 320 331 330 342 341 323 329 334 339 342 343 347 356 358 355
Height
1560 1562 1564 1565 1566 1567 1568 1570 1571 1571 1571 1571 1571 1571 1571 1571 1571 1571 1571 1571 1570 1570 1569 1568 1568 1567 1566 1565 1565 1564 1563 1562 1561 1560 1559 1558 1557 1557
1557 1558 1559 1561 1562 1564 1565 1566 1567 1568 1568 1568 1568 1569 1569 1569 1569 1569 1568 1568 1567 1567 1566 1564 1563 1562 1562 1561 1560 1559 1558 1558 1557 1556 1556 1555 1554 1553
1554 1556 1557 1559 1560 1560 1562 1563 1563 1564 1565 1566 1566 1566 1566 1566 1566 1565 1565 1565 1564 1563 1562 1560 1559 1557 1555 1555 1554 1554 1553 1552 1551 1550 1550 1550 1550 1549
1550 1552 1553 1554 1555 1557 1557 1559 1560 1561 1562 1562 1563 1564 1564 1563 1562 1561 1561 1561 1560 1559 1558 1556 1554 1552 1550 1549 1548 1547 1547 1546 1545 1544 1544 1543 1543 1543
1547 1548 1550 1550 1551 1552 1553 1555 1556 1557 1557 1558 1558 1559 1560 1560 1559 1559 1557 1556 1555 1553 1552 1551 1548 1546 1544 1543 1541 1540 1538 1538 1538 1538 1537 1536 1536 1536
1541 1542 1545 1547 1548 1549 1549 1550 1552 1552 1552 1553 1554 1554 1555 1555 1555 1555 1553 1551 1548 1547 1546 1545 1542 1541 1539 1536 1534 1533 1533 1531 1530 1530 1529 1528 1528 1528
1534 1538 1541 1542 1544 1545 1546 1547 1548 1547 1548 1549 1550 1550 1550 1550 1550 1549 1547 1545 1543 1542 1541 1540 1537 1535 1533 1531 1529 1528 1527 1525 1525 1523 1521 1520 1520 1519
1528 1534 1535 1536 1538 1540 1541 1542 1543 1544 1544 1545 1545 1544 1545 1546 1546 1543 1542 1540 1537 1538 1535 1534 1532 1529 1528 1527 1525 1523 1522 1520 1518 1517 1515 1514 1513 1512
1522 1525 1529 1530 1531 1534 1536 1536 1536 1537 1538 1537 1539 1538 1537 1539 1538 1538 1537 1534 1533 1532 1528 1525 1527 1524 1524 1520 1520 1518 1516 1513 1511 1509 1507 1506 1505 1504
1516 1517 1520 1522 1525 1528 1530 1531 1531 1531 1531 1531 1534 1534 1532 1533 1532 1532 1530 1528 1526 1527 1524 1517 1520 1517 1516 1514 1513 1512 1509 1507 1504 1502 1500 1498 1496 1494
1508 1511 1513 1516 1519 1522 1523 1524 1526 1525 1527 1528 1530 1529 1529 1527 1526 1526 1525 1522 1520 1519 1518 1513 1512 1510 1508 1506 1505 1504 1502 1500 1498 1496 1493 1490 1487 1485
1503 1505 1508 1510 1513 1515 1516 1518 1518 1521 1522 1522 1522 1523 1522 1522 1521 1520 1518 1517 1516 1513 1513 1510 1508 1506 1500 1498 1498 1497 1495 1494 1492 1489 1486 1483 1480 1476
1498 1500 1503 1505 1507 1508 1510 1511 1514 1516 1517 1517 1517 1517 1518 1517 1515 1514 1514 1514 1512 1510 1509 1505 1502 1500 1498 1493 1491 1491 1489 1486 1484 1481 1479 1476 1472 1469
1492 1497 1499 1500 1501 1503 1504 1507 1510 1512 1513 1513 1513 1513 1513 1512 1511 1512 1511 1510 1508 1506 1504 1501 1497 1496 1492 1488 1485 1483 1481 1479 1476 1472 1469 1465 1462 1459
1490 1492 1492 1493 1496 1499 1500 1503 1505 1507 1508 1509 1509 1509 1510 1510 1508 1508 1508 1506 1503 1501 1499 1497 1494 1491 1488 1484 1480 1477 1473 1471 1469 1464 1460 1455 1450 1446
1483 1486 1487 1489 1491 1493 1496 1500 1501 1503 1506 1506 1506 1505 1505 1505 1505 1503 1503 1501 1497 1496 1495 1493 1490 1486 1483 1480 1476 1472 1469 1463 1460 1456 1450 1444 1439 1435
1475 1480 1481 1485 1487 1489 1493 1496 1498 1500 1501 1502 1502 1502 1499 1500 1500 1499 1498 1496 1493 1490 1489 1488 1486 1482 1479 1475 1470 1466 1461 1458 1454 1448 1441 1433 1428 1422
1470 1477 1479 1480 1482 1486 1489 1492 1495 1496 1497 1498 1498 1499 1497 1496 1496 1495 1493 1491 1489 1487 1484 1482 1480 1477 1474 1471 1467 1460 1456 1452 1447 1440 1434 1423 1412 1408
1465 1471 1475 1477 1479 1483 1486 1488 1491 1492 1494 1494 1493 1495 1494 1492 1491 1490 1489 1488 1486 1483 1481 1478 1476 1472 1467 1462 1459 1456 1451 1446 1439 1432 1425 1415 1401 1390
1458 1464 1472 1475 1476 1480 1484 1487 1488 1489 1489 1489 1490 1491 1490 1489 1488 1487 1487 1485 1483 1480 1478 1476 1473 1469 1465 1459 1454 1452 1449 1441 1434 1424 1415 1405 1395 1381
1457 1462 1469 1471 1473 1477 1480 1484 1484 1484 1485 1485 1485 1485 1485 1484 1485 1485 1484 1483 1480 1478 1475 1473 1470 1466 1461 1457 1452 1447 1442 1439 1431 1421 1410 1396 1383 1368
1455 1459 1464 1466 1470 1473 1477 1478 1479 1480 1480 1480 1480 1481 1482 1482 1482 1482 1481 1480 1478 1475 1472 1470 1466 1463 1459 1454 1449 1444 1437 1430 1426 1419 1411 1401 1387 1369
1452 1456 1460 1464 1467 1471 1474 1475 1475 1475 1475 1476 1476 1477 1478 1478 1477 1478 1477 1476 1475 1473 1470 1467 1464 1460 1456 1451 1446 1441 1434 1427 1419 1411 1404 1397 1385 1372